Temperature
20 20 21 21 17 14 15 14 13 11 11 11 12 12 11 10 10 11 11 10 10 10 10 10 9 9 9 8 8 8 7 7 6 6 6 5 5 5 5 5 5 4 5 5 5 5 5 5 5
20 20 21 20 15 16 16 14 12 12 11 11 11 11 11 10 11 11 10 10 10 10 10 10 9 9 9 8 8 7 7 6 6 6 5 5 4 4 4 4 4 4 4 4 4 4 5 5 6
20 20 20 15 15 16 17 13 11 11 11 11 11 11 11 11 11 11 11 10 10 10 10 9 9 9 8 8 8 7 6 6 6 5 5 4 4 4 3 3 3 3 3 3 3 4 4 5 6
20 20 19 15 17 14 13 12 11 10 10 11 11 10 11 11 11 11 11 10 10 10 9 9 9 8 8 8 7 7 6 6 6 5 5 5 4 3 3 3 2 2 2 3 3 3 4 5 5
20 20 15 15 15 13 11 11 11 10 11 11 11 10 10 11 11 11 10 10 10 9 9 9 8 8 8 8 7 7 6 6 6 6 6 5 4 3 3 2 2 2 3 3 3 4 4 5 5
20 17 15 16 15 13 11 11 11 11 10 11 11 11 11 11 11 10 10 10 9 9 9 9 8 8 8 8 7 7 6 6 6 6 6 6 5 4 3 3 3 3 3 4 4 4 4 4 4
20 14 16 16 14 13 12 12 12 11 10 12 12 11 11 11 11 10 9 9 9 8 8 8 8 8 8 8 7 7 7 7 6 6 6 5 5 5 4 4 3 4 4 4 4 4 4 4 3
20 13 14 13 13 13 13 13 13 13 12 13 13 12 13 13 11 9 9 9 8 8 8 8 8 8 8 8 7 7 7 7 6 6 6 5 5 4 4 4 4 4 4 4 4 4 3 3 3
19 14 15 13 12 13 12 12 13 13 13 13 13 13 13 13 11 10 9 8 8 8 8 8 8 8 8 7 7 7 7 6 6 6 5 5 5 4 4 4 4 4 4 3 3 3 2 2 2
18 15 16 14 12 13 12 12 13 12 11 11 12 13 12 13 12 12 11 11 10 9 9 8 8 8 8 7 7 7 7 6 6 6 5 5 5 4 4 4 4 3 3 3 2 2 1 1 0
15 15 15 14 14 14 12 12 13 11 9 12 14 15 13 12 12 12 12 12 11 10 9 9 8 8 8 7 7 7 6 6 6 6 5 5 4 4 4 3 3 3 2 2 1 1 0 -1 -1
13 13 13 13 13 13 13 12 11 12 14 15 15 14 14 13 13 13 13 13 11 10 10 9 8 8 7 7 7 7 6 6 6 6 5 5 4 4 3 3 3 2 2 1 0 -0 -1 -2 -3
13 12 13 12 13 13 12 11 12 13 15 14 14 14 14 13 13 13 13 12 11 10 10 9 8 8 7 7 7 6 6 6 6 6 5 5 4 3 3 2 2 1 1 0 -1 -1 -2 -3 -4
12 12 12 12 13 12 12 12 11 14 15 14 14 14 14 14 14 13 13 12 12 11 10 9 8 8 7 7 7 6 6 6 6 5 5 4 3 3 2 2 1 0 -0 -1 -2 -2 -3 -4 -5
13 12 13 12 13 12 12 11 10 16 15 15 15 14 14 14 13 13 14 13 13 12 11 9 9 8 7 7 6 6 6 6 5 5 5 4 3 2 2 1 0 -0 -1 -2 -2 -3 -4 -5 -6
13 13 14 13 12 11 12 12 12 16 14 14 15 15 14 14 14 14 13 13 13 12 11 10 9 8 8 7 6 6 6 5 5 5 4 4 3 2 1 1 0 -1 -1 -2 -3 -4 -4 -5 -6
13 13 14 13 11 10 10 11 11 14 14 13 15 15 15 15 15 14 14 13 13 12 11 10 9 9 8 7 6 6 5 5 5 4 4 3 3 2 1 0 -0 -1 -2 -3 -3 -4 -5 -5 -6
16 15 14 13 12 9 8 9 11 13 12 13 14 15 15 15 16 16 15 14 13 12 11 10 9 9 8 7 6 6 5 5 5 4 4 3 3 2 1 0 -0 -1 -2 -3 -4 -4 -5 -5 -7
15 14 13 12 12 9 8 10 12 13 11 11 12 14 15 17 17 16 15 14 13 12 11 11 10 9 8 7 7 6 6 6 5 4 4 3 2 2 1 0 -1 -1 -2 -3 -4 -4 -4 -5 -6
14 14 12 12 11 10 9 9 11 11 11 12 12 14 17 18 18 17 16 15 14 13 12 12 11 10 9 9 8 7 6 5 4 4 4 3 2 2 1 0 -1 -2 -2 -3 -4 -5 -5 -5 -6
14 13 13 13 13 11 10 11 11 12 11 11 13 15 17 19 19 19 18 16 16 15 14 14 13 12 11 9 8 6 5 5 4 4 4 3 3 2 1 0 -1 -2 -2 -3 -4 -5 -5 -6 -6
13 13 13 14 12 10 11 11 12 12 11 11 14 16 19 20 20 20 19 18 17 17 16 15 14 13 12 10 9 7 7 6 6 5 4 3 2 2 1 0 -1 -2 -2 -3 -4 -4 -5 -6 -7
13 13 13 12 12 10 10 10 12 11 13 14 14 18 21 21 21 21 20 20 19 18 17 16 15 14 13 12 10 9 7 7 5 4 3 3 2 2 1 0 -1 -2 -2 -3 -4 -4 -5 -6 -7
13 12 10 8 8 10 10 9 11 12 13 14 14 18 19 21 21 21 21 20 19 18 18 17 16 15 14 13 11 10 8 7 5 4 4 3 2 2 1 -0 -1 -2 -2 -3 -4 -4 -5 -6 -7
13 12 11 12 11 11 10 9 11 14 13 12 13 17 18 19 19 21 21 20 20 19 18 18 17 16 15 14 13 11 9 7 6 5 4 3 2 2 1 -0 -1 -2 -3 -3 -4 -5 -5 -6 -7
12 12 12 13 12 10 10 10 12 13 13 14 15 16 19 20 20 20 20 20 20 19 19 18 17 17 16 15 14 12 10 8 6 5 4 3 3 2 1 -0 -1 -2 -3 -3 -4 -5 -5 -6 -7
12 11 11 10 10 9 9 10 11 13 14 14 16 17 19 20 20 20 20 20 19 19 19 18 17 17 16 15 14 13 11 9 7 5 4 3 2 2 1 -0 -1 -2 -3 -3 -4 -4 -5 -6 -7
12 10 8 10 11 10 10 10 12 15 15 14 13 16 18 19 19 19 19 19 19 19 18 18 17 17 16 15 14 13 12 10 8 6 4 3 2 1 1 -0 -1 -2 -3 -3 -4 -4 -5 -6 -7
10 10 10 8 8 9 9 11 12 13 13 13 13 16 17 18 18 18 17 17 18 18 18 18 17 17 16 15 14 13 12 10 8 6 4 3 2 1 0 -0 -1 -2 -2 -3 -4 -4 -5 -6 -7
10 10 9 10 10 7 7 11 13 12 12 12 13 15 17 17 16 16 16 16 17 17 17 17 17 16 16 15 14 13 11 10 8 6 5 3 2 1 0 -0 -1 -2 -2 -3 -4 -4 -5 -6 -7
Wind_Speed
3 3 3 4 6 6 2 3 5 5 4 2 2 4 7 7 6 4 2 6 9 9 7 7 9 8 8 9 9 10 11 12 14 15 16 17 17 18 19 20 21 22 23 24 25 25 26 27 27
2 3 5 5 5 2 4 5 6 5 6 6 4 3 4 4 1 4 5 7 11 11 10 7 9 9 8 8 8 9 10 11 13 14 15 15 16 17 18 19 20 20 21 22 23 24 25 26 27
2 5 5 5 4 4 3 4 6 4 6 5 4 1 3 4 5 7 6 12 11 11 10 8 10 9 8 7 8 8 9 10 11 12 13 14 15 16 16 17 18 19 20 21 22 23 24 25 26
4 5 6 5 2 2 2 3 7 8 4 3 6 3 3 2 6 7 8 13 11 10 9 7 11 9 8 7 7 7 8 9 10 12 12 13 13 14 15 15 16 17 18 19 21 22 23 24 25
5 5 6 3 2 2 3 3 9 8 8 6 6 5 4 2 5 9 10 12 10 10 8 6 10 10 8 7 6 7 7 8 9 11 11 12 12 13 13 14 15 16 17 19 20 22 23 24 25
5 5 4 3 4 2 3 6 7 6 6 5 7 5 5 3 8 10 10 11 13 12 8 5 10 10 8 7 6 6 7 8 8 10 11 11 11 12 12 13 14 15 17 18 20 21 22 23 24
5 5 4 4 3 4 5 7 6 7 7 8 8 6 3 5 8 10 9 11 11 12 10 7 8 8 7 6 7 7 7 7 8 9 10 10 11 11 12 13 14 15 16 18 19 21 21 22 22
6 6 4 3 5 7 6 8 5 9 7 4 9 8 6 8 9 9 7 7 7 9 10 10 9 9 8 6 7 7 7 7 8 9 10 10 11 11 12 13 13 14 16 17 19 19 20 20 21
4 5 4 7 8 6 6 7 4 4 6 4 5 5 1 12 13 10 6 5 6 7 8 11 11 11 10 9 8 8 8 8 8 8 9 10 11 11 11 12 13 14 16 17 18 18 19 18 19
4 4 8 6 7 5 8 8 8 5 5 6 6 3 6 14 16 15 13 12 12 11 8 11 13 13 12 10 10 10 9 9 9 9 10 10 10 9 9 11 13 13 15 16 17 17 17 17 18
3 5 2 1 3 4 8 6 7 8 10 12 11 10 11 14 17 18 17 14 13 11 9 11 15 15 14 13 12 12 11 11 10 10 10 9 8 8 8 10 11 13 13 15 15 15 15 15 15
4 2 2 2 2 5 7 6 6 10 12 7 10 11 13 20 22 22 20 14 12 10 11 10 17 16 16 15 14 14 13 12 12 11 11 9 8 6 6 7 8 10 11 11 12 12 13 13 14
3 1 2 2 3 3 4 4 6 10 12 4 7 12 16 21 21 19 15 13 12 14 14 12 17 17 17 16 15 14 15 14 14 13 12 11 9 7 5 4 5 6 6 7 8 9 10 11 13
2 1 1 2 2 2 3 4 4 13 6 8 10 13 16 20 21 16 15 16 18 18 16 13 15 19 18 16 15 16 16 16 15 14 14 12 10 8 6 4 2 1 2 3 5 8 9 10 12
3 1 2 2 2 1 1 9 11 11 5 9 11 12 14 17 17 20 20 20 20 17 16 15 15 19 18 17 17 16 17 17 16 16 15 14 12 10 8 5 4 4 4 5 6 8 9 9 9
2 3 4 4 5 2 3 12 12 6 10 12 12 11 13 15 15 18 18 17 15 14 15 16 16 16 17 17 17 16 18 18 17 17 17 16 15 13 11 8 7 8 7 7 7 8 4 5 5
3 3 5 6 5 4 6 12 10 3 8 12 12 12 14 14 15 17 17 17 16 16 16 17 15 15 17 17 16 16 17 17 17 17 17 18 17 16 14 11 10 9 9 8 7 5 4 5 6
4 5 6 7 5 6 8 16 19 9 10 13 13 12 13 17 21 17 17 16 15 15 16 17 17 14 13 13 10 9 10 13 16 17 18 19 19 18 16 13 12 11 8 6 6 5 5 5 6
3 5 8 9 4 7 12 19 25 16 11 16 17 14 16 19 15 11 14 14 13 15 17 18 18 15 12 7 7 6 6 6 8 15 19 20 20 19 17 12 12 11 7 6 6 4 5 4 3
4 5 8 8 3 6 9 16 19 14 12 16 16 16 17 15 10 12 13 15 18 19 19 19 20 19 17 13 8 5 4 5 8 13 17 20 20 20 16 15 12 11 7 6 6 5 3 4 2
5 6 7 7 5 4 7 12 10 8 6 8 11 12 11 15 16 13 15 17 18 20 23 21 22 20 19 14 8 4 3 3 5 7 9 17 20 20 18 16 15 12 9 6 7 6 6 4 3
7 7 5 3 4 6 4 8 11 9 10 10 12 12 14 15 14 13 14 15 21 23 19 20 20 20 19 17 16 14 12 11 11 8 9 13 19 19 19 17 16 13 11 7 7 7 6 5 5
7 1 1 1 2 5 3 5 12 8 10 12 11 12 14 14 14 15 17 19 19 17 17 18 17 19 19 20 21 19 16 11 6 6 9 9 13 17 18 17 16 13 11 10 9 6 7 6 6
3 4 4 5 4 4 4 6 9 7 10 10 9 9 10 11 11 13 12 12 13 12 14 15 18 19 19 21 20 21 19 13 10 10 10 10 7 9 15 16 15 14 12 11 10 9 8 7 8
3 4 5 6 3 6 3 5 11 16 11 10 13 14 12 9 9 10 11 12 13 14 16 16 19 20 20 21 22 22 19 17 18 15 14 12 9 9 11 14 13 13 14 14 13 8 8 8 9
4 5 4 4 6 7 3 8 10 14 11 10 11 12 13 12 9 10 10 11 12 13 14 16 19 20 19 21 22 19 17 14 13 14 12 13 12 11 11 15 14 15 15 14 12 8 8 7 9
4 4 4 3 4 5 8 9 12 12 9 8 8 9 11 12 11 11 10 10 11 12 15 17 18 18 19 20 19 18 18 17 15 14 13 11 10 10 13 13 12 13 14 13 10 8 9 8 9
2 6 5 2 4 6 8 7 6 11 13 12 12 12 11 11 11 11 10 10 10 11 12 13 17 18 17 17 18 17 17 18 15 13 15 14 13 11 11 12 11 10 11 11 9 9 9 9 10
5 4 4 3 3 4 6 8 8 11 13 13 14 13 12 13 13 12 11 9 8 9 10 13 15 15 15 17 17 17 17 16 15 15 16 15 14 14 13 12 12 11 11 10 9 10 9 10 11
7 7 8 4 6 6 5 11 12 12 12 11 13 13 13 14 13 12 11 9 7 8 8 10 12 14 15 14 15 16 15 16 17 18 17 15 15 14 14 12 12 12 11 10 10 11 11 11 12
Wind_Direction
15 41 61 55 55 53 116 189 159 145 158 118 102 131 159 171 174 194 118 163 144 138 122 119 120 108 94 82 70 61 54 48 43 40 38 35 35 34 31 31 30 29 28 28 27 26 26 25 24
20 46 54 59 84 44 269 194 180 184 156 137 110 113 132 190 192 135 157 179 153 138 129 128 129 118 105 93 78 67 60 54 48 44 41 38 37 36 32 32 30 29 29 28 27 26 24 23 22
77 50 76 74 105 183 236 186 175 123 146 144 123 107 194 204 190 184 193 166 152 142 139 148 136 126 115 103 89 74 66 60 54 50 44 40 40 38 32 32 30 29 28 27 27 26 24 23 20
81 49 54 74 128 198 246 197 156 134 164 151 147 178 248 227 184 183 158 158 148 147 147 160 146 138 126 114 100 83 73 66 60 57 50 43 42 40 33 33 30 29 28 27 26 25 24 22 20
58 77 62 49 260 264 250 194 158 163 181 177 168 185 237 198 140 141 150 158 153 153 155 171 157 149 139 126 113 96 83 75 68 65 56 47 44 41 34 33 31 29 28 26 26 25 24 22 20
58 70 89 257 259 266 224 171 163 170 169 171 175 188 232 158 148 159 159 164 162 154 150 149 161 154 148 139 128 113 97 87 79 74 64 53 47 41 36 33 32 31 29 27 26 24 23 22 19
107 105 169 211 234 259 208 169 182 174 186 202 182 187 234 192 186 161 159 161 163 157 149 133 126 140 146 145 142 128 114 102 92 85 75 62 52 43 39 32 33 32 31 29 27 25 22 21 18
115 103 108 189 217 248 191 170 193 172 202 175 164 184 231 199 159 142 142 153 163 164 161 153 146 147 141 131 145 139 127 116 105 96 87 74 61 48 39 32 32 33 32 30 27 24 21 20 15
93 89 211 216 204 237 170 176 187 168 143 183 213 214 184 138 136 138 148 172 185 184 181 171 166 164 159 145 138 139 132 125 115 106 98 90 79 60 39 33 34 34 33 30 27 23 20 18 13
87 167 228 203 189 197 178 187 179 158 189 224 237 201 119 142 159 172 182 188 192 194 195 188 180 175 169 160 154 148 142 138 134 128 120 105 89 72 53 40 36 36 35 31 26 22 20 15 8
73 191 201 139 197 165 168 193 184 176 224 215 208 187 154 164 177 189 195 194 195 192 192 191 189 182 176 169 165 164 160 156 153 149 141 127 106 84 68 55 46 43 38 34 24 20 14 7 358
91 50 28 338 150 157 178 181 199 213 227 209 199 165 167 178 189 197 200 197 189 189 198 191 190 186 184 180 178 177 174 172 170 168 163 150 133 111 83 62 49 43 35 27 17 8 358 349 341
89 58 31 33 126 163 165 202 235 246 238 205 153 159 180 190 198 205 204 194 190 198 199 194 190 189 187 185 183 187 185 184 181 178 177 169 155 142 116 81 55 40 27 14 358 345 334 324 317
121 72 5 36 90 136 198 258 246 258 232 194 181 188 195 199 202 201 200 199 200 203 201 194 192 194 190 189 191 191 191 189 186 186 186 182 171 161 151 136 105 24 336 322 313 305 298 293 292
136 47 310 222 173 122 6 288 236 242 163 207 213 210 208 212 207 207 206 206 204 203 198 195 196 195 193 195 196 196 194 191 191 192 191 189 184 178 174 175 199 228 245 264 279 284 279 276 276
66 24 314 263 185 147 161 269 266 234 198 228 227 222 221 222 217 216 212 209 203 198 197 198 199 195 198 197 198 196 196 195 196 195 195 195 194 191 187 192 213 228 234 245 257 262 259 263 267
28 323 281 292 190 162 200 254 271 164 200 238 239 228 227 230 229 223 214 209 203 199 197 197 199 194 197 197 197 197 196 198 199 197 197 199 199 198 196 202 218 225 226 234 247 246 233 257 268
266 263 267 268 214 181 225 255 268 232 216 242 246 238 231 233 234 221 214 208 202 199 198 200 201 196 189 187 186 191 199 204 202 199 200 201 201 201 201 207 219 222 219 228 233 246 246 244 259
208 235 264 264 212 195 241 260 270 267 231 244 246 240 237 240 238 210 205 202 198 198 200 201 201 196 184 180 184 187 205 202 201 205 204 202 202 201 200 205 213 215 214 221 222 234 262 262 250
219 261 271 282 207 211 277 276 272 265 239 235 238 235 234 238 233 210 201 199 202 204 204 204 205 199 196 197 184 176 173 190 202 202 203 204 202 201 203 206 209 213 214 218 221 215 239 261 264
237 226 249 271 323 270 306 298 290 292 252 250 238 235 232 230 233 217 205 205 205 208 207 207 206 202 199 190 171 149 136 142 176 198 203 203 201 201 202 204 209 212 210 217 220 212 218 244 254
262 244 232 281 325 300 357 303 293 291 298 268 248 234 235 232 230 220 208 208 210 213 207 207 203 202 198 188 191 189 196 201 199 192 193 194 198 200 204 208 209 212 214 215 222 220 211 221 250
229 28 76 324 245 304 268 235 286 309 288 275 261 242 237 231 224 223 216 215 215 210 204 205 202 203 198 196 199 201 208 205 176 175 183 191 196 201 204 207 209 212 216 219 221 221 219 218 231
129 62 55 54 72 295 242 193 283 271 250 281 295 284 267 254 237 234 227 216 214 202 200 199 201 206 200 200 203 206 208 194 180 186 190 195 196 201 205 207 209 214 217 220 223 223 224 228 232
91 66 348 339 345 261 197 212 254 261 256 260 281 294 299 287 260 246 232 220 216 204 202 200 202 208 203 203 207 210 209 199 199 195 196 193 196 203 206 206 208 213 220 224 225 223 228 229 233
180 158 180 258 266 288 272 239 257 271 288 274 270 281 295 293 279 263 247 232 223 211 203 201 206 210 204 205 210 210 206 204 207 201 195 197 201 204 196 202 208 214 219 225 224 226 231 230 235
161 201 177 168 280 281 277 288 297 292 316 325 313 307 302 302 298 281 266 242 227 216 209 206 208 211 208 208 208 208 206 207 206 199 197 198 198 196 196 199 205 213 219 223 222 230 234 235 239
170 158 110 147 280 285 289 280 259 293 303 315 318 315 310 310 303 290 275 255 234 220 210 203 208 212 211 207 207 210 209 209 205 197 198 199 198 194 190 197 204 210 217 221 221 232 236 238 245
149 161 160 169 198 226 279 269 240 249 270 287 296 299 298 298 295 289 282 270 246 222 207 206 209 211 211 209 208 211 208 206 204 204 204 201 197 195 198 199 204 211 217 217 223 233 235 241 251
182 193 162 192 246 208 245 270 258 260 276 281 285 291 293 292 292 292 290 284 261 234 217 213 213 215 216 209 208 212 209 204 207 210 206 199 198 197 198 198 204 212 217 216 222 235 242 242 251
Height
1550 1551 1553 1555 1559 1573 1578 1578 1578 1580 1581 1581 1582 1583 1584 1586 1590 1593 1587 1587 1590 1592 1594 1595 1596 1596 1596 1596 1595 1594 1594 1593 1592 1590 1589 1588 1586 1584 1583 1581 1580 1578 1576 1574 1572 1570 1568 1566 1564
1551 1553 1555 1556 1567 1580 1579 1576 1578 1578 1579 1580 1581 1582 1582 1582 1583 1584 1583 1586 1589 1591 1593 1594 1595 1595 1595 1595 1595 1594 1593 1592 1591 1590 1588 1587 1586 1584 1582 1581 1579 1577 1576 1574 1572 1569 1567 1565 1563
1552 1554 1556 1559 1570 1577 1573 1574 1576 1577 1578 1579 1580 1580 1581 1580 1580 1580 1582 1585 1587 1590 1592 1593 1594 1594 1594 1594 1594 1593 1593 1592 1590 1589 1587 1586 1585 1583 1582 1580 1579 1577 1575 1573 1571 1569 1567 1565 1563
1553 1555 1557 1565 1570 1573 1573 1573 1574 1577 1579 1579 1579 1579 1579 1579 1578 1579 1581 1583 1586 1589 1591 1592 1593 1593 1594 1594 1593 1593 1592 1591 1589 1588 1586 1585 1584 1582 1581 1579 1578 1576 1574 1573 1571 1569 1566 1565 1563
1554 1555 1563 1572 1572 1573 1573 1572 1574 1574 1576 1577 1578 1577 1576 1577 1577 1578 1580 1583 1585 1588 1589 1591 1592 1592 1593 1593 1592 1592 1591 1590 1588 1587 1585 1584 1582 1581 1579 1578 1576 1575 1573 1572 1570 1568 1566 1564 1563
1555 1556 1570 1573 1570 1571 1571 1571 1573 1573 1574 1575 1576 1576 1573 1574 1575 1577 1580 1582 1584 1587 1588 1589 1590 1591 1591 1591 1591 1590 1589 1588 1586 1585 1584 1582 1581 1579 1578 1577 1575 1574 1572 1571 1569 1568 1566 1564 1562
1555 1561 1567 1568 1571 1571 1569 1570 1571 1571 1572 1572 1573 1574 1571 1571 1574 1576 1579 1581 1583 1585 1587 1588 1589 1589 1590 1590 1589 1589 1588 1586 1585 1583 1582 1581 1579 1578 1576 1575 1574 1572 1571 1570 1568 1567 1565 1563 1561
1554 1560 1570 1573 1572 1568 1565 1567 1567 1569 1569 1570 1571 1570 1568 1569 1571 1574 1577 1579 1581 1582 1584 1585 1587 1587 1588 1588 1588 1587 1586 1585 1584 1582 1581 1579 1578 1577 1575 1574 1573 1571 1570 1569 1567 1565 1563 1562 1559
1554 1563 1568 1568 1569 1563 1562 1564 1565 1566 1567 1566 1566 1566 1566 1567 1568 1570 1572 1574 1576 1578 1580 1582 1584 1585 1586 1586 1586 1585 1584 1583 1582 1581 1579 1578 1577 1575 1574 1573 1571 1570 1569 1567 1565 1563 1561 1559 1557
1554 1563 1560 1557 1558 1558 1560 1561 1563 1564 1564 1563 1562 1562 1563 1564 1565 1566 1567 1569 1571 1573 1576 1579 1581 1582 1583 1583 1583 1583 1582 1581 1580 1579 1577 1576 1575 1573 1572 1571 1570 1568 1567 1565 1563 1561 1558 1556 1554
1553 1556 1555 1555 1556 1556 1558 1560 1561 1561 1560 1556 1556 1557 1559 1561 1562 1563 1564 1565 1567 1571 1573 1575 1577 1578 1580 1580 1580 1580 1580 1579 1578 1577 1575 1574 1572 1571 1570 1569 1568 1566 1565 1563 1560 1558 1555 1552 1550
1555 1556 1555 1555 1555 1555 1556 1557 1558 1555 1550 1552 1553 1555 1555 1556 1557 1558 1559 1561 1564 1566 1569 1571 1573 1574 1576 1576 1577 1577 1577 1576 1575 1574 1573 1571 1570 1569 1567 1566 1565 1563 1561 1559 1557 1554 1551 1548 1545
1555 1555 1555 1555 1554 1555 1555 1555 1554 1548 1548 1550 1550 1551 1551 1551 1552 1554 1556 1558 1560 1562 1564 1567 1568 1570 1571 1572 1573 1573 1573 1573 1572 1571 1570 1568 1567 1566 1564 1563 1561 1559 1557 1555 1552 1549 1546 1543 1540
1555 1555 1555 1554 1554 1554 1555 1553 1552 1540 1544 1545 1545 1545 1546 1547 1548 1549 1551 1552 1554 1556 1559 1561 1563 1565 1566 1567 1568 1569 1569 1569 1568 1567 1566 1565 1564 1562 1560 1559 1557 1555 1552 1550 1547 1544 1541 1538 1535
1555 1556 1555 1554 1553 1554 1554 1552 1544 1535 1540 1540 1539 1540 1540 1541 1543 1543 1545 1546 1549 1551 1553 1555 1558 1560 1561 1562 1563 1564 1564 1564 1564 1563 1562 1561 1559 1558 1556 1554 1552 1550 1547 1545 1542 1539 1536 1533 1530
1556 1558 1558 1552 1552 1553 1557 1551 1532 1534 1534 1533 1533 1534 1534 1535 1536 1537 1539 1541 1544 1546 1548 1550 1552 1553 1555 1556 1558 1558 1559 1559 1559 1558 1557 1556 1555 1553 1551 1550 1547 1545 1542 1540 1537 1535 1532 1529 1526
1560 1562 1558 1554 1552 1553 1554 1547 1529 1530 1529 1527 1527 1527 1527 1528 1529 1530 1533 1535 1537 1539 1542 1543 1545 1546 1549 1551 1552 1552 1552 1553 1553 1552 1552 1551 1549 1548 1546 1545 1542 1540 1537 1535 1533 1530 1527 1524 1521
1558 1558 1558 1555 1549 1553 1553 1543 1526 1525 1525 1522 1520 1520 1520 1519 1520 1524 1526 1528 1531 1533 1535 1536 1538 1540 1542 1544 1545 1545 1545 1546 1546 1546 1546 1545 1544 1542 1541 1539 1537 1535 1533 1531 1528 1526 1523 1520 1516
1553 1555 1558 1552 1546 1551 1548 1537 1522 1515 1517 1513 1510 1509 1510 1510 1513 1517 1519 1522 1523 1525 1526 1528 1530 1531 1534 1535 1535 1536 1536 1539 1539 1540 1540 1539 1538 1537 1535 1534 1532 1530 1528 1526 1524 1521 1519 1516 1512
1553 1555 1555 1549 1545 1548 1544 1533 1515 1506 1504 1500 1499 1499 1500 1502 1505 1508 1511 1513 1515 1516 1518 1520 1521 1523 1524 1526 1528 1529 1531 1531 1533 1533 1533 1532 1532 1531 1530 1528 1527 1525 1523 1521 1519 1516 1513 1511 1508
1552 1554 1551 1549 1545 1545 1545 1529 1512 1501 1497 1493 1492 1491 1492 1495 1497 1501 1503 1505 1507 1508 1509 1511 1513 1514 1516 1518 1520 1521 1522 1522 1523 1524 1525 1525 1525 1524 1523 1523 1521 1519 1517 1516 1514 1511 1508 1506 1504
1555 1547 1547 1547 1551 1553 1548 1545 1513 1503 1496 1488 1485 1484 1485 1488 1491 1493 1495 1497 1499 1500 1502 1504 1505 1506 1508 1509 1510 1510 1510 1511 1514 1517 1519 1518 1518 1517 1517 1516 1515 1513 1512 1510 1508 1506 1504 1501 1499
1547 1545 1547 1548 1551 1555 1551 1551 1521 1507 1497 1483 1478 1478 1479 1482 1485 1487 1488 1490 1492 1494 1495 1496 1497 1498 1499 1499 1500 1501 1501 1503 1507 1509 1510 1510 1510 1510 1510 1509 1508 1507 1506 1504 1502 1500 1498 1496 1493
1545 1548 1552 1557 1559 1559 1549 1555 1531 1507 1493 1484 1478 1476 1477 1478 1480 1481 1483 1484 1485 1487 1487 1488 1489 1489 1490 1490 1491 1491 1492 1494 1497 1499 1501 1502 1503 1503 1502 1502 1501 1500 1499 1498 1496 1494 1492 1490 1488
1547 1554 1561 1557 1559 1554 1546 1548 1527 1493 1486 1485 1480 1476 1476 1476 1476 1476 1477 1478 1479 1480 1480 1481 1481 1481 1481 1481 1481 1482 1483 1485 1488 1491 1493 1494 1494 1494 1495 1494 1494 1493 1492 1491 1490 1488 1486 1484 1481
1549 1552 1561 1561 1561 1554 1544 1542 1512 1486 1483 1481 1479 1476 1474 1473 1473 1473 1473 1474 1474 1474 1475 1475 1474 1474 1474 1473 1473 1474 1475 1476 1478 1481 1484 1485 1486 1487 1487 1487 1486 1486 1485 1484 1483 1481 1479 1477 1474
1549 1553 1553 1560 1559 1561 1547 1532 1509 1484 1480 1478 1476 1475 1473 1472 1471 1471 1470 1470 1469 1469 1468 1468 1468 1467 1467 1466 1466 1466 1466 1467 1469 1472 1474 1476 1477 1479 1479 1478 1478 1478 1478 1477 1475 1473 1472 1470 1467
1545 1550 1559 1558 1560 1558 1547 1536 1516 1493 1483 1478 1476 1474 1472 1471 1470 1468 1467 1465 1463 1462 1462 1461 1460 1460 1459 1459 1458 1457 1458 1458 1460 1462 1464 1466 1468 1469 1470 1470 1470 1470 1470 1469 1468 1466 1464 1462 1460
1549 1551 1552 1558 1560 1560 1555 1532 1499 1491 1482 1480 1476 1472 1471 1468 1465 1462 1460 1457 1455 1454 1453 1452 1452 1451 1451 1450 1449 1449 1448 1449 1450 1451 1453 1456 1458 1459 1460 1461 1462 1462 1462 1462 1461 1459 1457 1454 1452
1543 1545 1550 1554 1552 1559 1558 1525 1488 1483 1478 1477 1474 1471 1468 1465 1461 1457 1453 1450 1447 1446 1445 1445 1444 1444 1443 1442 1441 1440 1439 1439 1439 1440 1442 1445 1447 1449 1451 1452 1453 1454 1454 1454 1453 1451 1449 1447 1444